Bloomington, IN

4:31 AM EST on December 14, 2017 (GMT -0500)
Monroe County

Weather History for KBMG - January, 2013

Change the Weather History Date:

Friday, January 4, 2013

  Actual Average Record
Temperature  
Mean Temperature 24 °F 29 °F  
Max Temperature 31 °F 38 °F 66 °F (1997)
Min Temperature 17 °F 21 °F -7 °F (1999)
Degree Days  
Heating Degree Days 41 36  
Month to date heating degree days 179 144  
Since 1 July heating degree days 2193 2217  
Cooling Degree Days 0 0  
Month to date cooling degree days 0 0  
Year to date cooling degree days 0 0  
Moisture  
Dew Point 20 °F    
Average Humidity 75    
Maximum Humidity 92    
Minimum Humidity 58    
Precipitation  
Precipitation 0.00 in 0.14 in 3.07 in (2004)
Month to date precipitation T 0.54  
Year to date precipitation T 0.54  
Sea Level Pressure  
Sea Level Pressure 30.35 in    
Wind  
Wind Speed 7 mph (WSW)    
Max Wind Speed 17 mph    
Max Gust Speed 24 mph    
Visibility 9 miles    
Events      
T = Trace of Precipitation, MM = Missing Value Source: NWS Daily Summary

Daily Weather History Graph

Daily Weather History Graph

Search for Another Location

Airport or City:

Trip Planner

Search our weather history database for the weather conditions in past years. The results will help you decide how hot, cold, wet, or windy it might be!

Date:

Astronomy

Jan. 04, 2013 Rise Set
Actual Time 8:06 AM EST 5:37 PM EST
Civil Twilight 7:36 AM EST 6:07 PM EST
Nautical Twilight 7:02 AM EST 6:40 PM EST
Astronomical Twilight 6:30 AM EST 7:12 PM EST
Moon 12:08 AM EST (1/4) 11:51 AM EST (1/4)
Length of Visible Light 10h 30m
Length of Day
9h 31m
Waning Gibbous, 55% of the Moon is Illuminated
Jan 4
Waning Gibbous
Jan 4
Last Quarter
Jan 11
New
Jan 18
First Quarter
Jan 26
Full

Hourly Weather History & Observations

Time (EST) Temp. Windchill Dew Point Humidity Pressure Visibility Wind Dir Wind Speed Gust Speed Precip Events Conditions
12:53 AM 30.9 °F 25.2 °F 21.9 °F 69% 30.35 in 10.0 mi West 5.8 mph - N/A   Overcast
1:53 AM 30.0 °F 23.2 °F 21.9 °F 72% 30.33 in 10.0 mi West 6.9 mph - N/A   Overcast
2:01 AM 30.2 °F 23.4 °F 21.2 °F 69% 30.30 in 10.0 mi WNW 6.9 mph - N/A   Overcast
2:15 AM 30.2 °F 24.3 °F 23.0 °F 75% 30.31 in 10.0 mi WNW 5.8 mph - N/A   Overcast
2:53 AM 30.0 °F 25.2 °F 23.0 °F 75% 30.33 in 10.0 mi West 4.6 mph - N/A   Overcast
3:53 AM 28.9 °F 25.2 °F 23.0 °F 78% 30.34 in 9.0 mi West 3.5 mph - N/A   Overcast
4:53 AM 28.9 °F - 23.0 °F 78% 30.34 in 9.0 mi Calm Calm - N/A   Overcast
5:26 AM 28.4 °F 24.6 °F 21.2 °F 74% 30.31 in 9.0 mi WSW 3.5 mph - N/A   Scattered Clouds
5:53 AM 25.0 °F 20.7 °F 19.9 °F 81% 30.33 in 8.0 mi West 3.5 mph - N/A   Clear
8:53 AM 21.9 °F 15.7 °F 19.9 °F 92% 30.36 in 4.0 mi WSW 4.6 mph - N/A   Scattered Clouds
9:01 AM 23.0 °F 18.4 °F 19.4 °F 86% 30.34 in 4.0 mi WSW 3.5 mph - N/A   Mostly Cloudy
9:53 AM 25.0 °F 17.1 °F 21.0 °F 85% 30.38 in 5.0 mi West 6.9 mph - N/A   Partly Cloudy
10:53 AM 28.0 °F 16.5 °F 18.0 °F 66% 30.39 in 10.0 mi West 15.0 mph 20.7 mph N/A   Clear
11:53 AM 28.0 °F 20.0 °F 18.0 °F 66% 30.39 in 10.0 mi West 8.1 mph - N/A   Clear
12:53 PM 30.0 °F 21.7 °F 19.0 °F 64% 30.37 in 10.0 mi West 9.2 mph - N/A   Clear
1:53 PM 30.0 °F 20.5 °F 18.0 °F 61% 30.37 in 10.0 mi West 11.5 mph - N/A   Clear
2:53 PM 30.0 °F 21.7 °F 17.1 °F 59% 30.35 in 10.0 mi WSW 9.2 mph - N/A   Clear
3:53 PM 30.9 °F 22.2 °F 18.0 °F 59% 30.35 in 10.0 mi West 10.4 mph - N/A   Clear
4:53 PM 30.0 °F 20.5 °F 18.0 °F 61% 30.36 in 10.0 mi West 11.5 mph 16.1 mph N/A   Clear
5:53 PM 27.0 °F 19.5 °F 17.1 °F 66% 30.36 in 10.0 mi SW 6.9 mph - N/A   Clear
6:53 PM 26.1 °F 18.4 °F 18.0 °F 71% 30.37 in 10.0 mi SW 6.9 mph - N/A   Clear
8:53 PM 25.0 °F 17.1 °F 18.0 °F 75% 30.36 in 9.0 mi SW 6.9 mph - N/A   Clear
9:53 PM 25.0 °F 17.1 °F 19.0 °F 78% 30.35 in 9.0 mi SW 6.9 mph - N/A   Clear
10:53 PM 24.1 °F 19.7 °F 18.0 °F 77% 30.34 in 9.0 mi SSW 3.5 mph - N/A   Clear
11:53 PM 18.0 °F 12.7 °F 14.0 °F 84% 30.35 in 6.0 mi SW 3.5 mph - N/A   Clear